DW6399 Weather Reports


time (UTC)temp
F
wind
direction
speed
knots
gust
knots
rain 1hr
in
rain 24hr
in
rain mn
in
humidity
%
barometer
mb
20260508005404 32 298 2.6 6.1 0.00 0.20 0.00 94 1018.2
20260508004525 32 290 2.6 6.1 0.00 0.20 0.00 94 1018.2
20260508003604 31 290 2.6 5.2 0.00 0.20 0.00 93 1018.0
20260508002704 31 302 2.6 5.2 0.00 0.20 0.00 94 1018.1
20260508001825 31 306 2.6 3.5 0.00 0.20 0.00 94 1018.0
20260508000925 32 307 2.6 4.3 0.00 0.20 0.00 93 1017.9
20260508000004 32 316 2.6 4.3 0.00 0.20 0.00 93 1017.8
20260507235404 32 319 2.6 4.3 0.00 0.20 0.00 93 1017.8
20260507234525 32 308 3.5 6.1 0.00 0.20 0.00 93 1017.7
20260507233625 32 304 3.5 7.0 0.00 0.20 0.00 93 1017.6
20260507232726 32 296 3.5 7.0 0.00 0.20 0.00 93 1017.5
20260507231825 32 296 3.5 6.1 0.00 0.20 0.00 94 1017.4
20260507230904 32 292 2.6 6.1 0.00 0.20 0.00 93 1017.4
20260507230004 31 286 2.6 3.5 0.00 0.20 0.00 93 1017.4
20260507225425 31 286 2.6 5.2 0.00 0.20 0.00 93 1017.3
20260507224504 32 283 2.6 3.5 0.00 0.20 0.00 93 1017.1
20260507223624 31 308 1.7 3.5 0.00 0.20 0.00 93 1017.0
20260507222704 32 308 2.6 3.5 0.00 0.20 0.00 93 1017.0
20260507221824 32 308 2.6 4.3 0.00 0.20 0.00 93 1016.9
20260507220904 31 313 2.6 3.5 0.00 0.20 0.00 93 1016.8
20260507220004 32 315 1.7 3.5 0.00 0.20 0.00 93 1016.6
20260507215425 32 315 2.6 3.5 0.00 0.20 0.00 93 1016.6
20260507214503 32 315 1.7 3.5 0.00 0.20 0.00 93 1016.5
20260507213625 33 315 2.6 3.5 0.00 0.20 0.00 93 1016.5
20260507212704 33 315 2.6 4.3 0.00 0.20 0.00 93 1016.4
20260507211804 33 316 0.9 4.3 0.00 0.20 0.00 93 1016.3
20260507210924 33 0 0.0 0.0 0.00 0.20 0.00 93 1016.2
20260507210006 33 0 0.0 0.0 0.01 0.20 0.00 93 1016.1
20260507205404 33 0 0.0 0.0 0.01 0.20 0.20 93 1016.1
20260507204504 33 300 0.9 1.7 0.03 0.20 0.20 93 1016.0
20260507203625 33 300 1.7 2.6 0.05 0.20 0.20 92 1016.0
20260507202703 33 300 1.7 2.6 0.07 0.20 0.20 92 1015.9
20260507201804 33 304 1.7 3.5 0.09 0.20 0.20 92 1015.8
20260507200904 33 334 0.9 2.6 0.10 0.20 0.20 92 1015.8
20260507200004 33 334 1.7 2.6 0.09 0.19 0.20 92 1015.7
20260507195403 33 334 2.6 4.3 0.10 0.19 0.19 92 1015.7
20260507194504 33 335 3.5 5.2 0.08 0.17 0.17 92 1015.7
20260507193603 33 334 4.3 7.8 0.06 0.15 0.15 92 1015.6
20260507192704 33 330 4.3 7.8 0.05 0.13 0.13 92 1015.5
20260507191803 34 327 4.3 7.0 0.03 0.11 0.11 92 1015.4
20260507190904 34 328 4.3 7.8 0.03 0.10 0.10 92 1015.4
20260507190025 34 333 6.1 8.7 0.04 0.10 0.10 92 1015.4
20260507185403 33 331 6.1 8.7 0.04 0.09 0.09 92 1015.3
20260507184504 33 332 6.1 9.6 0.06 0.09 0.09 92 1015.3
20260507183603 33 326 6.1 8.7 0.06 0.09 0.09 91 1015.2
20260507182703 33 322 5.2 8.7 0.05 0.08 0.08 91 1015.2
20260507181803 33 320 6.1 10.4 0.05 0.08 0.08 90 1015.1
20260507180903 33 319 7.0 9.6 0.05 0.07 0.07 90 1015.2
20260507180025 34 315 5.2 8.7 0.04 0.06 0.06 89 1015.2
20260507175404 34 308 4.3 8.7 0.03 0.05 0.05 89 1015.2
20260507174503 34 297 3.5 7.0 0.01 0.03 0.03 87 1015.1
20260507173604 36 276 2.6 7.8 0.01 0.03 0.03 84 1015.1
20260507172703 38 240 1.7 7.0 0.01 0.03 0.03 83 1015.0
20260507171825 40 213 2.6 7.8 0.01 0.03 0.03 81 1014.9
20260507170903 41 295 0.9 3.5 0.00 0.02 0.02 80 1014.6
20260507170004 41 359 1.7 3.5 0.00 0.02 0.02 79 1014.2
20260507165404 41 7 1.7 3.5 0.00 0.02 0.02 78 1014.0
20260507164504 42 18 1.7 6.1 0.00 0.02 0.02 76 1014.0
20260507163603 43 56 1.7 7.8 0.00 0.02 0.02 75 1013.8
20260507162704 43 54 1.7 6.1 0.00 0.02 0.02 73 1013.7
20260507161803 44 67 1.7 6.1 0.00 0.02 0.02 72 1013.5
20260507160904 44 15 0.9 3.5 0.00 0.02 0.02 70 1013.4
20260507160004 44 349 0.9 3.5 0.00 0.02 0.02 69 1013.4
20260507155404 44 353 0.9 4.3 0.00 0.02 0.02 69 1013.3
20260507154504 45 24 0.9 4.3 0.00 0.02 0.02 67 1013.4
20260507153604 45 61 0.9 2.6 0.00 0.02 0.02 66 1013.4
20260507152703 45 61 0.0 3.5 0.00 0.02 0.02 65 1013.3
20260507151803 45 61 0.9 3.5 0.00 0.02 0.02 63 1013.4
20260507150925 46 88 1.7 3.5 0.00 0.02 0.02 63 1013.5
20260507150004 46 88 1.7 6.1 0.00 0.02 0.02 64 1013.5
20260507145404 46 132 1.7 4.3 0.00 0.02 0.02 66 1013.5
20260507144504 46 142 2.6 6.1 0.00 0.02 0.02 67 1013.5
20260507143603 46 133 2.6 7.0 0.00 0.02 0.02 69 1013.6
20260507142724 45 144 2.6 7.0 0.00 0.02 0.02 69 1013.6
20260507141803 44 146 1.7 5.2 0.00 0.02 0.02 72 1013.6
20260507140903 43 207 0.9 3.5 0.00 0.02 0.02 72 1013.6
20260507140025 42 303 0.9 3.5 0.00 0.02 0.02 75 1013.6
20260507135403 42 333 2.6 3.5 0.00 0.02 0.02 73 1013.6
20260507134503 41 333 5.2 8.7 0.00 0.02 0.02 78 1013.6
20260507133604 40 316 7.0 11.3 0.00 0.02 0.02 78 1014.0
20260507132703 40 311 7.0 10.4 0.00 0.02 0.02 79 1014.2
20260507131803 41 316 5.2 9.6 0.01 0.02 0.02 80 1014.1
20260507130903 41 327 5.2 9.6 0.01 0.02 0.02 80 1014.0
20260507130025 41 335 3.5 7.0 0.02 0.02 0.02 81 1014.1
20260507125403 42 346 2.6 7.8 0.02 0.02 0.02 81 1014.0
20260507124503 42 318 5.2 8.7 0.02 0.02 0.02 85 1013.9
20260507123604 41 331 6.1 11.3 0.02 0.02 0.02 83 1014.0
20260507122705 40 318 6.1 11.3 0.02 0.02 0.02 84 1014.2
20260507121803 40 287 3.5 7.8 0.01 0.01 0.01 82 1014.3
20260507120903 41 222 2.6 5.2 0.01 0.01 0.01 80 1014.4
20260507120004 41 282 2.6 6.1 0.00 0.00 0.00 75 1014.3
20260507115424 42 251 0.9 3.5 0.00 0.00 0.00 76 1014.2
20260507114524 43 316 4.3 12.2 0.00 0.00 0.00 71 1014.1
20260507113603 44 316 2.6 12.2 0.00 0.00 0.00 64 1013.9
20260507112703 45 356 0.0 2.6 0.00 0.00 0.00 62 1013.7
20260507111803 45 183 3.5 7.8 0.00 0.00 0.00 63 1013.6
20260507110903 45 199 3.5 10.4 0.00 0.00 0.00 63 1013.6
20260507110025 46 291 3.5 10.4 0.00 0.00 0.00 59 1013.5
20260507105403 46 309 1.7 6.1 0.00 0.00 0.00 58 1013.5
20260507104504 45 350 1.7 7.8 0.00 0.00 0.00 62 1013.5
20260507103603 44 8 2.6 4.3 0.00 0.00 0.00 62 1013.5
20260507102703 44 283 1.7 4.3 0.00 0.00 0.00 65 1013.6
20260507101803 43 271 1.7 8.7 0.00 0.00 0.00 67 1013.6
20260507100903 44 291 6.1 13.0 0.00 0.00 0.00 63 1013.6
20260507100004 45 290 8.7 16.5 0.00 0.00 0.00 57 1013.3
20260507095403 45 294 8.7 15.6 0.00 0.00 0.00 54 1013.4
20260507094504 45 292 7.8 12.2 0.00 0.00 0.00 53 1013.4
20260507093603 45 275 7.8 14.8 0.00 0.00 0.00 55 1013.3
20260507092703 46 279 6.1 13.9 0.00 0.00 0.00 55 1013.2
20260507091803 47 261 4.3 11.3 0.00 0.00 0.00 50 1013.1
20260507090924 47 270 3.5 8.7 0.00 0.00 0.00 49 1013.0
20260507090024 48 282 7.0 13.9 0.00 0.00 0.00 46 1013.0
20260507085403 49 289 6.1 13.9 0.00 0.00 0.00 44 1012.9
20260507084503 50 272 4.3 13.0 0.00 0.00 0.00 43 1012.9
20260507083603 51 239 3.5 8.7 0.00 0.00 0.00 44 1012.8
20260507082724 51 186 4.3 13.0 0.00 0.00 0.00 44 1013.0
20260507081803 50 188 5.2 13.0 0.00 0.00 0.00 48 1012.9
20260507080903 49 207 3.5 10.4 0.00 0.00 0.00 50 1013.0
20260507080004 49 203 2.6 7.8 0.00 0.00 0.00 51 1013.0
20260507075403 49 198 3.5 8.7 0.00 0.00 0.00 52 1013.0
20260507074503 48 213 3.5 10.4 0.00 0.00 0.00 54 1012.9
20260507073603 48 225 3.5 9.6 0.00 0.00 0.00 54 1012.9
20260507072703 48 164 4.3 9.6 0.00 0.00 0.00 57 1012.9
20260507071803 47 164 5.2 10.4 0.00 0.00 0.00 62 1012.9
20260507070903 46 170 4.3 7.8 0.00 0.00 0.00 63 1012.9
20260507070024 46 168 5.2 9.6 0.00 0.00 0.00 65 1012.9
20260507065403 46 174 4.3 9.6 0.00 0.00 0.00 65 1012.9
20260507064503 46 166 4.3 8.7 0.00 0.00 0.00 66 1012.9
20260507063624 45 156 5.2 8.7 0.00 0.00 0.00 67 1012.8
20260507062724 44 162 4.3 7.8 0.00 0.00 0.00 69 1012.9
20260507061803 43 166 2.6 7.0 0.00 0.00 0.00 72 1012.9
20260507060925 42 248 2.6 6.1 0.00 0.00 0.00 70 1012.8
20260507060003 42 228 1.7 7.0 0.00 0.00 0.00 71 1012.8
20260507055403 42 203 1.7 7.0 0.00 0.00 0.00 73 1012.8
20260507054503 41 203 2.6 7.8 0.00 0.00 0.00 75 1012.7
20260507053624 40 210 1.7 5.2 0.00 0.00 0.00 76 1012.8
20260507052703 40 200 1.7 5.2 0.00 0.00 0.00 77 1012.8
20260507051803 40 197 1.7 6.1 0.00 0.00 0.00 77 1012.8
20260507050903 40 202 1.7 6.1 0.00 0.00 0.00 78 1012.6
20260507050003 40 177 2.6 5.2 0.00 0.00 0.00 79 1012.2
20260507045403 39 186 3.5 6.1 0.00 0.00 0.00 80 1012.8
20260507044503 38 185 1.7 6.1 0.00 0.00 0.00 84 1012.3
20260507043603 36 157 1.7 4.3 0.00 0.00 0.00 85 1012.3
20260507042703 35 171 1.7 3.5 0.00 0.00 0.00 88 1012.7
20260507041824 34 179 0.9 3.5 0.00 0.00 0.00 91 1012.3
20260507040924 32 175 0.0 0.9 0.00 0.00 0.00 94 1012.0
20260507040003 30 0 0.0 0.0 0.00 0.00 0.00 93 1011.5
20260507035403 28 176 0.0 1.7 0.00 0.00 0.00 93 1010.3
20260507034503 28 176 0.9 2.6 0.00 0.00 0.00 92 1013.3
20260507033624 28 176 0.9 2.6 0.00 0.00 0.00 93 1012.5
20260507032724 27 176 2.6 3.5 0.00 0.00 0.00 94 1012.5
20260507031803 26 176 1.7 3.5 0.00 0.00 0.00 93 1012.3
20260507030903 26 0 0.0 0.0 0.00 0.00 0.00 93 1012.3
20260507030003 25 176 0.0 1.7 0.00 0.00 0.00 93 1012.2
20260507025424 25 176 0.0 1.7 0.00 0.00 0.00 92 1012.3
20260507024503 25 0 0.0 0.0 0.00 0.00 0.00 92 1012.3
20260507023624 25 176 0.0 0.9 0.00 0.00 0.00 92 1012.1
20260507022703 26 0 0.0 0.0 0.00 0.00 0.00 92 1012.1
20260507021803 26 0 0.0 0.0 0.00 0.00 0.00 92 1012.1
20260507020903 26 0 0.0 0.0 0.00 0.00 0.00 93 1012.1
20260507020024 26 0 0.0 0.0 0.00 0.00 0.00 92 1012.1
20260507015403 26 0 0.0 0.0 0.00 0.00 0.00 92 1012.1
20260507014503 26 0 0.0 0.0 0.00 0.00 0.00 92 1012.1
20260507013603 26 0 0.0 0.0 0.00 0.00 0.00 92 1012.1
20260507012703 26 176 0.0 1.7 0.00 0.00 0.00 92 1012.0
20260507011803 26 0 0.0 0.0 0.00 0.00 0.00 92 1012.0
20260507010903 26 0 0.0 0.0 0.00 0.00 0.00 92 1012.1
20260507010004 26 176 0.0 0.9 0.00 0.00 0.00 92 1012.1